CW0927 Weather Reports


Display with metric or nautical units.
time (UTC)temp
F
wind
direction
speed
MPH
gust
MPH
rain 1hr
in
rain 24hr
in
rain mn
in
humidity
%
barometer
mb
20260904221903 78 69 0.0 1.0 0.00 0.52 0.52 92 1016.7
20260904221323 78 69 0.0 1.0 0.00 0.52 0.52 92 1016.6
20260904220826 78 69 0.0 1.0 0.00 0.52 0.52 92 1016.2
20260904220331 78 69 0.0 4.0 0.00 0.52 0.52 92 1015.9
20260904215857 78 76 2.0 4.0 0.00 0.52 0.52 92 1015.5
20260904215339 78 241 0.0 1.0 0.00 0.52 0.52 91 1015.1
20260904214823 77 241 0.0 1.0 0.00 0.52 0.52 91 1015.0
20260904214327 77 241 0.0 1.0 0.01 0.52 0.52 91 1015.2
20260904213829 77 241 0.0 2.0 0.06 0.52 0.52 91 1015.1
20260904213335 77 271 0.0 2.0 0.22 0.52 0.52 91 1015.0
20260904212833 78 271 1.0 3.0 0.33 0.52 0.52 90 1015.1
20260904212336 78 279 1.0 3.0 0.45 0.52 0.52 90 1015.3
20260904211840 78 266 1.0 3.0 0.52 0.52 0.52 90 1015.6
20260904211324 78 283 0.0 2.0 0.52 0.52 0.52 90 1015.9
20260904210828 78 297 0.0 1.0 0.52 0.52 0.52 89 1015.7
20260904210333 78 336 0.0 1.0 0.52 0.52 0.52 89 1015.7
20260904205833 78 336 0.0 1.0 0.52 0.52 0.52 88 1015.8
20260904205336 78 336 0.0 1.0 0.52 0.52 0.52 87 1016.0
20260904204836 79 349 0.0 4.0 0.52 0.52 0.52 86 1016.2
20260904204340 79 360 0.0 7.0 0.51 0.51 0.51 84 1016.3
20260904203843 80 258 1.0 7.0 0.46 0.46 0.46 83 1016.8
20260904203351 81 261 2.0 18.0 0.30 0.30 0.30 81 1016.8
20260904202849 84 264 4.0 18.0 0.19 0.19 0.19 76 1016.7
20260904202350 88 263 7.0 16.0 0.07 0.07 0.07 72 1016.1
20260904201850 92 278 4.0 10.0 0.00 0.00 0.00 69 1015.6
20260904201349 93 174 2.0 5.0 0.00 0.00 0.00 65 1015.1
20260904200859 93 122 2.0 8.0 0.00 0.00 0.00 63 1015.1
20260904200344 94 146 3.0 8.0 0.00 0.00 0.00 63 1015.1
20260904195845 94 86 3.0 5.0 0.00 0.00 0.00 64 1015.0
20260904195344 93 81 2.0 5.0 0.00 0.00 0.00 67 1015.0
20260904194847 92 136 2.0 5.0 0.00 0.00 0.00 66 1015.1
20260904194358 92 100 2.0 10.0 0.00 0.00 0.00 67 1015.2
20260904193840 93 66 3.0 10.0 0.00 0.00 0.00 67 1015.2
20260904193344 93 75 3.0 8.0 0.00 0.00 0.00 67 1015.3
20260904192846 93 146 2.0 8.0 0.00 0.00 0.00 66 1015.4
20260904192349 94 138 3.0 7.0 0.00 0.00 0.00 63 1015.4
20260904191831 94 128 2.0 8.0 0.00 0.00 0.00 64 1015.5
20260904191402 94 136 3.0 8.0 0.00 0.00 0.00 63 1015.5
20260904190911 94 133 2.0 7.0 0.00 0.00 0.00 62 1015.5
20260904190347 95 154 4.0 7.0 0.00 0.00 0.00 60 1015.8
20260904185846 95 183 1.0 5.0 0.00 0.00 0.00 62 1015.8
20260904185347 94 124 2.0 5.0 0.00 0.00 0.00 63 1015.9
20260904184849 95 195 2.0 6.0 0.00 0.00 0.00 63 1016.0
20260904184350 95 117 0.0 6.0 0.00 0.00 0.00 62 1015.9
20260904183829 95 261 2.0 7.0 0.00 0.00 0.00 61 1016.1
20260904183330 96 190 1.0 7.0 0.00 0.00 0.00 63 1016.3
20260904182830 95 254 1.0 3.0 0.00 0.00 0.00 65 1016.4
20260904182401 95 206 2.0 3.0 0.00 0.00 0.00 63 1016.5
20260904181841 95 184 1.0 3.0 0.00 0.00 0.00 64 1016.6
20260904181341 94 157 1.0 3.0 0.00 0.00 0.00 65 1016.5
20260904180823 94 257 1.0 3.0 0.00 0.00 0.00 64 1016.5
20260904180326 93 269 1.0 6.0 0.00 0.00 0.00 66 1016.6
20260904175852 93 160 2.0 4.0 0.00 0.00 0.00 66 1016.7
20260904175334 92 232 1.0 4.0 0.00 0.00 0.00 68 1016.8
20260904174837 92 255 2.0 3.0 0.00 0.00 0.00 66 1016.9
20260904174341 92 269 1.0 3.0 0.00 0.00 0.00 66 1017.0
20260904173844 93 121 0.0 5.0 0.00 0.00 0.00 63 1017.0
20260904173348 93 210 1.0 6.0 0.00 0.00 0.00 64 1017.1
20260904172829 94 145 2.0 5.0 0.00 0.00 0.00 64 1017.1
20260904172333 94 172 1.0 10.0 0.00 0.00 0.00 64 1017.2
20260904171837 94 132 1.0 7.0 0.00 0.00 0.00 63 1017.2
20260904171339 93 250 0.0 7.0 0.00 0.00 0.00 66 1017.2
20260904170844 94 184 2.0 9.0 0.00 0.00 0.00 66 1017.4
20260904170349 93 148 1.0 9.0 0.00 0.00 0.00 65 1017.4
20260904165825 93 133 2.0 10.0 0.00 0.00 0.00 65 1017.4
20260904165327 93 117 1.0 10.0 0.00 0.00 0.00 67 1017.5
20260904164827 92 219 1.0 7.0 0.00 0.00 0.00 66 1017.5
20260904164330 92 243 1.0 7.0 0.00 0.00 0.00 66 1017.5
20260904163832 92 217 1.0 9.0 0.00 0.00 0.00 66 1017.5
20260904163336 92 131 1.0 9.0 0.00 0.00 0.00 67 1017.6
20260904162835 92 128 1.0 7.0 0.00 0.00 0.00 66 1017.6
20260904162337 92 173 1.0 7.0 0.00 0.00 0.00 67 1017.6
20260904161905 92 148 2.0 7.0 0.00 0.00 0.00 68 1017.8
20260904161344 91 130 2.0 10.0 0.00 0.00 0.00 67 1017.8
20260904160823 91 142 5.0 10.0 0.00 0.00 0.00 68 1017.8
20260904160323 91 217 2.0 6.0 0.00 0.00 0.00 69 1017.9
20260904155906 90 228 2.0 6.0 0.00 0.00 0.00 70 1017.9
20260904155346 90 188 2.0 7.0 0.00 0.00 0.00 71 1017.9
20260904154826 89 194 3.0 8.0 0.00 0.00 0.00 70 1018.0
20260904154327 89 146 2.0 9.0 0.00 0.00 0.00 71 1018.1
20260904153829 89 255 4.0 9.0 0.00 0.00 0.00 71 1018.1
20260904153330 89 250 1.0 7.0 0.00 0.00 0.00 72 1018.2
20260904152831 88 234 2.0 7.0 0.00 0.00 0.00 73 1018.2
20260904152342 88 182 2.0 6.0 0.00 0.00 0.00 72 1018.1
20260904151823 88 153 0.0 4.0 0.00 0.00 0.00 73 1018.1
20260904151326 88 156 1.0 6.0 0.00 0.00 0.00 74 1018.0
20260904150828 88 273 2.0 6.0 0.00 0.00 0.00 72 1018.0
20260904150354 88 135 1.0 5.0 0.00 0.00 0.00 73 1017.9
20260904145834 88 271 0.0 6.0 0.00 0.01 0.00 76 1017.8
20260904145339 88 175 1.0 6.0 0.00 0.01 0.00 75 1017.9
20260904144822 87 294 1.0 8.0 0.00 0.01 0.00 77 1017.9
20260904144354 87 182 1.0 8.0 0.00 0.01 0.00 75 1017.9
20260904143841 87 183 1.0 9.0 0.00 0.01 0.00 76 1017.9
20260904143342 87 189 3.0 7.0 0.00 0.01 0.00 78 1017.7
20260904142823 87 257 1.0 8.0 0.00 0.01 0.00 79 1017.7
20260904142324 86 213 3.0 8.0 0.00 0.01 0.00 79 1017.7
20260904141826 86 261 1.0 7.0 0.00 0.01 0.00 80 1017.8
20260904141326 86 257 2.0 7.0 0.00 0.01 0.00 80 1017.8
20260904140827 86 264 0.0 3.0 0.00 0.01 0.00 82 1017.7
20260904140324 85 221 1.0 4.0 0.00 0.01 0.00 83 1017.7
20260904135823 84 204 1.0 4.0 0.00 0.01 0.00 84 1017.6
20260904135323 84 198 1.0 3.0 0.00 0.01 0.00 86 1017.6
20260904134830 83 180 0.0 3.0 0.00 0.01 0.00 87 1017.5
20260904134400 82 258 0.0 2.0 0.00 0.01 0.00 88 1017.6
20260904133837 82 190 0.0 1.0 0.00 0.01 0.00 89 1017.5
20260904133347 81 186 0.0 3.0 0.00 0.01 0.00 90 1017.5
20260904132846 81 200 1.0 3.0 0.00 0.01 0.00 90 1017.4
20260904132325 81 166 0.0 4.0 0.00 0.01 0.00 91 1017.4
20260904131854 80 179 0.0 4.0 0.00 0.01 0.00 92 1017.4
20260904131337 80 159 1.0 3.0 0.00 0.01 0.00 93 1017.4
20260904130841 80 159 0.0 5.0 0.00 0.01 0.00 94 1017.3
20260904130347 79 142 1.0 5.0 0.00 0.01 0.00 95 1017.4
20260904125845 79 190 0.0 3.0 0.00 0.01 0.00 95 1017.3
20260904125345 78 148 0.0 1.0 0.00 0.01 0.00 95 1017.4
20260904124848 78 145 0.0 1.0 0.00 0.01 0.00 95 1017.4
20260904124331 77 145 0.0 0.0 0.00 0.01 0.00 95 1017.5
20260904123903 77 145 0.0 0.0 0.00 0.01 0.00 95 1017.4
20260904123346 77 145 0.0 0.0 0.00 0.01 0.00 95 1017.3
20260904122855 77 144 0.0 0.0 0.00 0.01 0.00 95 1017.3
20260904122333 76 144 0.0 0.0 0.00 0.01 0.00 95 1017.3
20260904121835 76 144 0.0 0.0 0.00 0.01 0.00 94 1017.2
20260904121339 76 144 0.0 0.0 0.00 0.01 0.00 94 1017.2
20260904120823 76 144 0.0 0.0 0.00 0.01 0.00 94 1017.2
20260904120327 76 144 0.0 0.0 0.00 0.01 0.00 94 1017.1
20260904115829 76 144 0.0 0.0 0.00 0.01 0.00 94 1017.0
20260904115332 76 144 0.0 0.0 0.00 0.01 0.00 94 1016.9
20260904114835 76 144 0.0 0.0 0.00 0.01 0.00 94 1016.9
20260904114338 75 144 0.0 0.0 0.00 0.01 0.00 94 1016.9
20260904113840 75 144 0.0 0.0 0.00 0.01 0.00 94 1016.9
20260904113343 75 144 0.0 0.0 0.00 0.01 0.00 93 1016.8
20260904112822 75 144 0.0 0.0 0.00 0.01 0.00 93 1016.7
20260904112325 75 144 0.0 0.0 0.00 0.01 0.00 93 1016.6
20260904111828 75 144 0.0 0.0 0.00 0.01 0.00 93 1016.6
20260904111331 75 144 0.0 0.0 0.00 0.01 0.00 93 1016.6
20260904110829 75 144 0.0 0.0 0.00 0.01 0.00 93 1016.6
20260904110333 75 144 0.0 0.0 0.00 0.01 0.00 93 1016.4
20260904105832 75 144 0.0 0.0 0.00 0.01 0.00 93 1016.5
20260904105334 75 144 0.0 0.0 0.00 0.01 0.00 93 1016.4
20260904104837 75 144 0.0 0.0 0.00 0.01 0.00 93 1016.3
20260904104339 75 144 0.0 0.0 0.00 0.01 0.00 93 1016.3
20260904103824 75 144 0.0 0.0 0.00 0.01 0.00 93 1016.3
20260904103330 75 144 0.0 0.0 0.00 0.01 0.00 93 1016.3
20260904102901 76 144 0.0 0.0 0.00 0.01 0.00 93 1016.3
20260904102323 76 144 0.0 0.0 0.00 0.01 0.00 93 1016.3
20260904101827 76 144 0.0 0.0 0.00 0.01 0.00 93 1016.2
20260904101359 76 144 0.0 0.0 0.00 0.01 0.00 93 1016.1
20260904100822 76 144 0.0 0.0 0.00 0.01 0.00 93 1016.1
20260904100411 76 144 0.0 0.0 0.00 0.01 0.00 93 1016.1
20260904095849 76 144 0.0 0.0 0.00 0.01 0.00 93 1016.0
20260904095330 76 144 0.0 0.0 0.00 0.01 0.00 93 1016.1
20260904094832 76 144 0.0 0.0 0.00 0.01 0.00 93 1016.0
20260904094335 76 144 0.0 0.0 0.00 0.01 0.00 93 1016.0
20260904093837 76 144 0.0 0.0 0.00 0.01 0.00 93 1016.0
20260904093347 76 144 0.0 0.0 0.00 0.01 0.00 93 1016.0
20260904092848 76 144 0.0 0.0 0.00 0.01 0.00 93 1016.0
20260904092336 76 144 0.0 0.0 0.00 0.01 0.00 93 1016.0
20260904091837 76 144 0.0 0.0 0.00 0.01 0.00 93 1015.9
20260904091335 76 144 0.0 0.0 0.00 0.01 0.00 93 1015.9
20260904090837 76 144 0.0 0.0 0.00 0.01 0.00 92 1015.9
20260904090343 76 144 0.0 0.0 0.00 0.01 0.00 92 1015.8
20260904085845 76 144 0.0 0.0 0.00 0.01 0.00 92 1015.8
20260904085349 76 144 0.0 0.0 0.00 0.01 0.00 92 1015.8
20260904084831 76 144 0.0 0.0 0.00 0.01 0.00 92 1015.9
20260904084334 76 144 0.0 0.0 0.00 0.01 0.00 92 1015.9
20260904083838 76 144 0.0 0.0 0.00 0.01 0.00 92 1015.9
20260904083341 76 144 0.0 0.0 0.00 0.01 0.00 92 1015.9
20260904082842 77 144 0.0 0.0 0.00 0.01 0.00 92 1015.9
20260904082344 77 144 0.0 0.0 0.00 0.01 0.00 92 1015.9
20260904081845 77 144 0.0 0.0 0.00 0.01 0.00 92 1015.9
20260904081346 77 144 0.0 0.0 0.00 0.01 0.00 92 1015.9
20260904080853 77 144 0.0 0.0 0.00 0.01 0.00 92 1015.9
20260904080403 77 144 0.0 0.0 0.00 0.01 0.00 92 1015.9
20260904075841 77 144 0.0 0.0 0.00 0.01 0.00 92 1015.8
20260904075323 77 144 0.0 0.0 0.00 0.01 0.00 92 1015.7
20260904074833 77 144 0.0 0.0 0.00 0.01 0.00 92 1015.7
20260904074335 77 144 0.0 0.0 0.00 0.01 0.00 92 1015.7
20260904073837 77 144 0.0 0.0 0.00 0.01 0.00 92 1015.7
20260904073339 77 144 0.0 0.0 0.00 0.01 0.00 92 1015.7
20260904072840 77 144 0.0 0.0 0.00 0.01 0.00 92 1015.6
20260904072341 77 144 0.0 0.0 0.00 0.01 0.00 92 1015.6
20260904071843 77 144 0.0 0.0 0.00 0.01 0.00 92 1015.7
20260904071341 77 144 0.0 0.0 0.00 0.01 0.00 92 1015.7
20260904070842 77 144 0.0 0.0 0.00 0.01 0.00 92 1015.7
20260904070324 77 144 0.0 0.0 0.00 0.01 0.00 92 1015.6
20260904065825 77 144 0.0 0.0 0.00 0.01 0.00 92 1015.6
20260904065327 77 144 0.0 0.0 0.00 0.01 0.00 91 1015.7
20260904064830 77 144 0.0 0.0 0.00 0.01 0.00 91 1015.6
20260904064332 78 144 0.0 0.0 0.00 0.01 0.00 92 1015.6
20260904063834 78 144 0.0 0.0 0.00 0.01 0.00 91 1015.7
20260904063336 78 144 0.0 0.0 0.00 0.01 0.00 91 1015.8
20260904062837 78 144 0.0 0.0 0.00 0.01 0.00 91 1015.9
20260904062338 78 144 0.0 0.0 0.00 0.01 0.00 91 1016.0
20260904061841 78 144 0.0 0.0 0.00 0.01 0.00 91 1016.0
20260904061342 78 144 0.0 0.0 0.00 0.01 0.00 91 1016.1
20260904060843 78 144 0.0 0.0 0.00 0.01 0.00 91 1016.1
20260904060341 78 144 0.0 0.0 0.00 0.01 0.00 91 1016.2
20260904055841 78 144 0.0 0.0 0.00 0.01 0.00 91 1016.2
20260904055323 78 144 0.0 0.0 0.00 0.01 0.00 91 1016.3
20260904054825 78 144 0.0 0.0 0.00 0.01 0.00 91 1016.3
20260904054327 78 144 0.0 0.0 0.00 0.01 0.00 91 1016.4
20260904053857 78 144 0.0 0.0 0.00 0.01 0.00 91 1016.4
20260904053406 78 144 0.0 0.0 0.00 0.01 0.00 91 1016.4
20260904052847 78 144 0.0 0.0 0.00 0.01 0.00 91 1016.4
20260904052349 78 144 0.0 0.0 0.00 0.01 0.00 91 1016.3
20260904051850 78 144 0.0 0.0 0.00 0.01 0.00 91 1016.4
20260904051353 79 144 0.0 0.0 0.00 0.01 0.00 91 1016.4
20260904050834 79 144 0.0 0.0 0.00 0.01 0.00 91 1016.5
20260904050334 79 144 0.0 0.0 0.00 0.01 0.00 90 1016.6
20260904045835 79 144 0.0 0.0 0.00 0.01 0.00 90 1016.7
20260904045339 79 144 0.0 0.0 0.00 0.01 0.00 90 1016.7
20260904044822 79 144 0.0 0.0 0.00 0.01 0.00 89 1016.7
20260904044354 79 144 0.0 0.0 0.00 0.01 0.00 89 1016.8
20260904043905 79 144 0.0 0.0 0.00 0.01 0.00 89 1016.8
20260904043347 79 144 0.0 0.0 0.00 0.01 0.00 89 1016.8
20260904042849 79 144 0.0 0.0 0.00 0.01 0.00 89 1016.8
20260904042359 79 144 0.0 0.0 0.00 0.01 0.00 88 1016.7
20260904041841 79 144 0.0 0.0 0.00 0.01 0.00 88 1016.7
20260904041324 80 144 0.0 0.0 0.00 0.01 0.00 88 1016.7
20260904040825 80 144 0.0 0.0 0.00 0.01 0.00 88 1016.6
20260904040352 80 144 0.0 0.0 0.00 0.01 0.00 88 1016.7
20260904035825 80 144 0.0 0.0 0.00 0.01 0.01 88 1016.7
20260904035329 80 144 0.0 0.0 0.00 0.01 0.01 88 1016.7
20260904034833 80 144 0.0 0.0 0.00 0.01 0.01 88 1016.7
20260904034337 80 144 0.0 0.0 0.00 0.01 0.01 88 1016.7
20260904033841 80 144 0.0 0.0 0.00 0.01 0.01 88 1016.6
20260904033343 80 144 0.0 1.0 0.00 0.01 0.01 87 1016.6
20260904032825 80 144 0.0 2.0 0.00 0.01 0.01 87 1016.5
20260904032327 80 144 0.0 2.0 0.00 0.01 0.01 87 1016.5
20260904031830 80 149 0.0 1.0 0.00 0.01 0.01 87 1016.5
20260904031402 81 149 0.0 2.0 0.00 0.01 0.01 87 1016.5
20260904030823 81 141 0.0 3.0 0.00 0.01 0.01 87 1016.6
20260904030355 81 137 0.0 4.0 0.00 0.01 0.01 87 1016.6
20260904025900 81 127 1.0 4.0 0.00 0.01 0.01 87 1016.6
20260904025342 81 128 1.0 6.0 0.00 0.01 0.01 88 1016.6
20260904024844 81 121 1.0 6.0 0.00 0.01 0.01 88 1016.5
20260904024348 81 129 2.0 6.0 0.00 0.01 0.01 88 1016.5
20260904023830 81 130 1.0 4.0 0.00 0.01 0.01 89 1016.4
20260904023336 81 153 1.0 5.0 0.00 0.01 0.01 89 1016.4
20260904022838 81 128 2.0 5.0 0.00 0.01 0.01 89 1016.3
20260904022342 81 138 1.0 5.0 0.00 0.01 0.01 89 1016.2
20260904021826 81 76 2.0 7.0 0.00 0.01 0.01 88 1016.3
20260904021331 81 97 2.0 7.0 0.00 0.01 0.01 88 1016.4
20260904020842 81 134 2.0 7.0 0.00 0.01 0.01 88 1016.4
20260904020327 81 75 1.0 4.0 0.00 0.01 0.01 89 1016.4
20260904015853 82 125 2.0 4.0 0.00 0.01 0.01 89 1016.4
20260904015336 82 117 2.0 4.0 0.00 0.01 0.01 88 1016.4
20260904014840 82 68 1.0 4.0 0.00 0.01 0.01 88 1016.4
20260904014345 82 96 1.0 7.0 0.00 0.01 0.01 88 1016.3
20260904013849 82 136 1.0 7.0 0.00 0.01 0.01 88 1016.3
20260904013334 82 108 2.0 5.0 0.00 0.01 0.01 88 1016.3
20260904012835 82 117 2.0 5.0 0.00 0.01 0.01 88 1016.2
20260904012339 82 112 1.0 5.0 0.00 0.01 0.01 88 1016.1
20260904011824 82 111 1.0 7.0 0.00 0.01 0.01 88 1016.1
20260904011334 82 113 2.0 7.0 0.00 0.01 0.01 88 1016.1
20260904010838 82 76 2.0 8.0 0.00 0.01 0.01 87 1016.0
20260904010339 82 99 2.0 8.0 0.00 0.01 0.01 87 1016.1
20260904005845 82 128 1.0 6.0 0.00 0.01 0.01 87 1016.2
20260904005341 82 126 2.0 5.0 0.00 0.01 0.01 87 1016.1
20260904004844 82 124 1.0 4.0 0.00 0.01 0.01 87 1016.2
20260904004323 82 128 1.0 4.0 0.00 0.01 0.01 87 1016.1
20260904003823 82 128 1.0 3.0 0.00 0.01 0.01 87 1016.1
20260904003328 82 125 1.0 3.0 0.00 0.01 0.01 87 1016.1
20260904002859 82 133 1.0 4.0 0.00 0.01 0.01 87 1016.0
20260904002339 82 133 0.0 4.0 0.00 0.01 0.01 87 1016.0
20260904001824 82 97 2.0 4.0 0.00 0.01 0.01 87 1016.1
20260904001328 82 142 1.0 5.0 0.00 0.01 0.01 87 1016.0
20260904000829 82 132 1.0 5.0 0.00 0.01 0.01 87 1015.9
20260904000333 82 134 1.0 5.0 0.00 0.01 0.01 87 1015.9
20260903235833 82 121 1.0 5.0 0.00 0.01 0.01 87 1015.8
20260903235336 82 132 1.0 4.0 0.00 0.01 0.01 86 1015.6
20260903234834 82 136 2.0 4.0 0.00 0.01 0.01 86 1015.5
20260903234338 83 101 2.0 4.0 0.00 0.01 0.01 86 1015.5
20260903233841 83 151 2.0 4.0 0.00 0.01 0.01 86 1015.6
20260903233326 83 111 1.0 3.0 0.00 0.01 0.01 86 1015.9
20260903232828 83 95 1.0 4.0 0.00 0.01 0.01 86 1015.9
20260903232337 83 128 2.0 4.0 0.00 0.01 0.01 86 1016.0
20260903231841 83 121 2.0 6.0 0.00 0.01 0.01 86 1015.9
20260903231345 83 119 2.0 6.0 0.00 0.01 0.01 86 1015.8
20260903230848 83 126 1.0 3.0 0.00 0.01 0.01 86 1015.8
20260903230332 83 105 1.0 5.0 0.00 0.01 0.01 85 1015.5
20260903225834 83 71 1.0 7.0 0.00 0.01 0.01 85 1015.6
20260903225337 83 138 1.0 8.0 0.00 0.01 0.01 85 1015.6
20260903224905 83 128 3.0 8.0 0.00 0.01 0.01 85 1015.6
20260903224325 83 134 2.0 4.0 0.00 0.01 0.01 85 1015.6
20260903223829 84 71 1.0 9.0 0.00 0.01 0.01 85 1015.6
20260903223335 84 115 3.0 9.0 0.00 0.01 0.01 84 1015.5
20260903222835 84 92 1.0 3.0 0.00 0.01 0.01 84 1015.4
20260903222339 84 113 1.0 3.0 0.00 0.01 0.01 84 1015.5